Location: *
(42.0175°N, 9.4056°E)
Time: 22:00:03
(UTC+00:00)

Shenzhou-11 Module - Pass Details

Date: 25 August 2019
Orbit: 317 x 330 km, 42.8° (Epoch: 14 September)

Event Time Altitude Azimuth Distance (km) Brightness Sun altitude
Rises 19:43:26 0° 278° (W) 2,076 7.0 -17.0°
Reaches altitude 10° 19:45:27 10° 279° (W) 1,239 5.7 -17.3°
Maximum altitude 19:48:13 80° 6° (N) 331 1.7 -17.8°
Enters shadow 19:48:14 80° 14° (NNE) 331 1.6 -17.8°
